Home > Weather > Ankara > Past weeks

Flag for Turkey Past Weather in Ankara, Turkey — Yesterday and Last 2 Weeks

Now
54 °F

Passing clouds.


Feels Like: 54 °F
Forecast: 45 / 78 °F
Wind: 2 mph from Southwest

Location: Ankara / Esenboga

Current Time: May 29, 2016 at 10:17:43 PM

Latest Report: May 29, 2016 at 9:50 PM


Visibility: N/A

Pressure: 30.04 "Hg (27.06 "Hg at 871m altitude)

Humidity: 88%

Dew Point: 50 °F

Location of AnkaraLocation

Past Weather in Ankara — Graph

°F

Ankara Temperature Yesterday

Maximum temperature yesterday: 61 °F (at 11:50 AM)
Minimum temperature yesterday: 50 °F (at 1:20 AM)
Average temperature yesterday: 55 °F

High & Low Weather Summary for the Past Weeks

 TemperatureHumidityPressure
High75 °F (May 15, 2:20 PM)100% (May 26, 2:20 AM)30.07 "Hg (May 26, 2:20 AM)
Low39 °F (May 19, 5:50 AM)22% (May 20, 5:50 PM)29.71 "Hg (May 25, 3:20 PM)
Average57 °F66%29.92 "Hg
* Reported May 14 8:20 PM — May 29 8:50 PM, Ankara, Weather by CustomWeather, © 2016

Note: Actual official high and low records may vary slightly from our data, if they occured in-between our weather recording intervals... More about our weather records

Advertising

Ankara Weather History for the Previous 24 Hours

Scroll right to see more
 ConditionsComfort  
Time TempWeatherWind HumidityBarometerVisibility
8:50 PM
Sun, May 29
59 °FScattered clouds.2 mph72%30.01 "HgN/A
8:20 PM61 °FScattered clouds.1 mph68%30.01 "HgN/A
7:50 PM61 °FScattered clouds.3 mph68%30.01 "HgN/A
7:20 PM63 °FScattered clouds.2 mph64%30.01 "HgN/A
6:50 PM61 °FScattered clouds.2 mph68%30.01 "HgN/A
6:20 PM61 °FScattered clouds.1 mph72%30.01 "HgN/A
5:50 PM59 °FScattered clouds.1 mph77%30.01 "HgN/A
5:20 PM59 °FScattered clouds.5 mph72%30.01 "HgN/A
4:50 PM59 °FThunderstorms. Partly sunny.6 mph77%30.01 "HgN/A
4:20 PM63 °FPartly sunny.8 mph59%30.01 "HgN/A
3:50 PM63 °FPartly sunny.5 mph59%30.01 "HgN/A
3:20 PM63 °FPartly sunny.6 mph56%30.01 "HgN/A
2:50 PM63 °FPartly sunny.8 mph59%30.01 "HgN/A
2:20 PM63 °FPartly sunny.7 mph52%29.98 "HgN/A
1:50 PM64 °FScattered clouds.12 mph52%29.98 "HgN/A
1:20 PM64 °FScattered clouds.12 mph52%29.98 "HgN/A
12:50 PM64 °FScattered clouds.7 mph49%29.98 "HgN/A
12:20 PM66 °FScattered clouds.7 mph46%29.98 "HgN/A
11:50 AM64 °FScattered clouds.7 mph46%29.98 "HgN/A
11:20 AM63 °FScattered clouds.7 mph49%29.98 "HgN/A
10:50 AM63 °FScattered clouds.6 mph49%30.01 "HgN/A
10:20 AM61 °FScattered clouds.5 mph55%29.98 "HgN/A
9:50 AM59 °FScattered clouds.2 mph59%30.01 "HgN/A
9:20 AM57 °FScattered clouds.3 mph63%30.01 "HgN/A
8:50 AM55 °FScattered clouds.2 mph63%30.01 "HgN/A
8:20 AM54 °FScattered clouds.5 mph72%30.01 "HgN/A
7:50 AM54 °FScattered clouds.1 mph72%30.01 "HgN/A
7:20 AM50 °FScattered clouds.1 mph82%30.01 "HgN/A
6:50 AM48 °FScattered clouds.1 mph87%30.01 "HgN/A
6:20 AM46 °FPassing clouds.1 mph87%30.01 "HgN/A
5:50 AM48 °FPassing clouds.2 mph82%29.98 "HgN/A
5:20 AM46 °FPassing clouds.5 mph87%29.98 "HgN/A
4:50 AM50 °FPassing clouds.2 mph76%29.98 "HgN/A
4:20 AM48 °FPassing clouds.5 mph82%29.98 "HgN/A
3:50 AM48 °FPassing clouds.1 mph82%29.98 "HgN/A
3:20 AM50 °FPassing clouds.1 mph76%29.98 "HgN/A
2:50 AM50 °FPassing clouds.1 mph76%29.98 "HgN/A
2:20 AM50 °FPassing clouds.1 mph82%29.98 "HgN/A
1:50 AM52 °FPassing clouds.1 mph77%29.98 "HgN/A
1:20 AM52 °FPassing clouds.1 mph77%29.98 "HgN/A
12:50 AM52 °FPassing clouds.1 mph77%29.98 "HgN/A
12:20 AM52 °FPassing clouds.1 mph77%29.98 "HgN/A
11:50 PM
Sat, May 28
52 °FPassing clouds.1 mph77%29.98 "HgN/A
11:20 PM54 °FPassing clouds.2 mph72%29.98 "HgN/A
10:50 PM54 °FPassing clouds.2 mph72%30.01 "HgN/A
10:20 PM55 °FPassing clouds.6 mph67%30.01 "HgN/A
Weather by CustomWeather, © 2016

See weather overviewHow to use our weather pages